Location: Friaudour
(46.0460°N, 1.2873°E)
Time: 15:45:46
(UTC+00:00)

Spot 4 Rocket - Pass Details

Date: 29 October 2020
Orbit: 776 x 781 km, 98.7° (Epoch: 29 November)

Event Time Altitude Azimuth Distance (km) Brightness Sun altitude
Rises 02:30:15 0° 22° (NNE) 3,269 7.8 -41.5°
Reaches altitude 10° 02:32:46 10° 31° (NNE) 2,337 7.0 -41.1°
Enters shadow 02:33:50 16° 38° (NE) 1,977 6.6 -41.0°
